AAL883 TNCM-KBOS

Flight info

Callsign AAL883
Flight time 3h 30m
Altitude 36000
Route THANK L456 HANCY/M084F360 L456 MEGGG DCT BALTN DCT DASER DCT KAYYT/N0487F360 Y578 JENYY DCT FERNZ OOSHN5
Aircraft B77W/H-SDE1E2E3FGHIJ2J3J4J5M1RWXY/LB1D1

Departure

Time 2026-05-05 18:40
Airport Princess Juliana International Airport (TNCM)

Arrival

Time 2026-05-05 22:10
Airport Boston Logan International Airport (KBOS)
Time Latitude Longitude Altitude Speed Heading
2026-05-05 18:27 18.04326 -63.11292 26 ft 0 kts 352°
2026-05-05 18:32 18.04322 -63.11291 28 ft 3 kts 352°
2026-05-05 18:32 18.04295 -63.11286 30 ft 3 kts 346°
2026-05-05 18:32 18.04283 -63.11285 26 ft 4 kts 37°
2026-05-05 18:32 18.04275 -63.11294 26 ft 3 kts 42°
2026-05-05 18:33 18.04257 -63.11314 29 ft 3 kts 49°
2026-05-05 18:33 18.04239 -63.11336 31 ft 3 kts 55°
2026-05-05 18:33 18.04230 -63.11353 28 ft 1 kts 61°
2026-05-05 18:33 18.04228 -63.11355 29 ft 1 kts 61°
2026-05-05 18:36 18.04231 -63.11348 26 ft 3 kts 71°
2026-05-05 18:36 18.04225 -63.11320 28 ft 6 kts 120°
2026-05-05 18:36 18.04184 -63.11303 28 ft 7 kts 170°
2026-05-05 18:36 18.04134 -63.11293 30 ft 0 kts 170°
2026-05-05 18:37 18.04129 -63.11293 28 ft 4 kts 170°
2026-05-05 18:37 18.04064 -63.11298 29 ft 12 kts 209°
2026-05-05 18:37 18.04025 -63.11382 30 ft 17 kts 258°
2026-05-05 18:37 18.04001 -63.11543 26 ft 26 kts 262°
2026-05-05 18:38 18.03975 -63.11730 26 ft 25 kts 262°
2026-05-05 18:38 18.03971 -63.11854 26 ft 11 kts 280°
2026-05-05 18:38 18.03989 -63.11926 26 ft 6 kts 275°
2026-05-05 18:38 18.03980 -63.11941 26 ft 4 kts 226°
2026-05-05 18:39 18.03949 -63.11913 27 ft 8 kts 80°
2026-05-05 18:39 18.03951 -63.11894 27 ft 0 kts 83°
2026-05-05 18:39 18.03970 -63.11752 26 ft 66 kts 82°
2026-05-05 18:39 18.04089 -63.10857 41 ft 177 kts 85°
2026-05-05 18:40 18.04187 -63.09492 1224 ft 188 kts 98°
2026-05-05 18:40 18.03725 -63.08245 2644 ft 184 kts 121°
2026-05-05 18:40 18.02869 -63.07243 3437 ft 193 kts 144°
2026-05-05 18:40 18.01603 -63.06573 3942 ft 213 kts 154°
2026-05-05 18:41 18.00088 -63.06039 4241 ft 247 kts 163°
2026-05-05 18:41 17.98372 -63.05612 4995 ft 259 kts 165°
2026-05-05 18:41 17.96593 -63.05190 5963 ft 265 kts 165°
2026-05-05 18:41 17.94757 -63.04890 6862 ft 272 kts 180°
2026-05-05 18:42 17.92898 -63.05399 7712 ft 284 kts 207°
2026-05-05 18:42 17.91405 -63.06767 8645 ft 291 kts 234°
2026-05-05 18:42 17.90532 -63.08692 9544 ft 296 kts 251°
2026-05-05 18:42 17.89955 -63.10786 10448 ft 300 kts 254°
2026-05-05 18:43 17.89419 -63.12939 11187 ft 313 kts 255°
2026-05-05 18:43 17.88845 -63.15248 11440 ft 341 kts 255°
2026-05-05 18:43 17.88368 -63.17769 11613 ft 365 kts 266°
2026-05-05 18:43 17.88497 -63.20494 12023 ft 383 kts 280°
2026-05-05 18:44 17.89197 -63.23229 12731 ft 392 kts 291°
2026-05-05 18:44 17.90409 -63.25814 13591 ft 396 kts 302°
2026-05-05 18:44 17.92056 -63.28078 14545 ft 396 kts 314°
2026-05-05 18:44 17.94157 -63.30007 15469 ft 397 kts 322°
2026-05-05 18:45 17.96384 -63.31735 16328 ft 400 kts 324°
2026-05-05 18:45 17.98639 -63.33399 17153 ft 403 kts 325°
2026-05-05 18:45 18.00959 -63.35081 17951 ft 406 kts 325°
2026-05-05 18:45 18.03306 -63.36768 18734 ft 410 kts 325°
2026-05-05 18:46 18.05683 -63.38464 19391 ft 416 kts 325°
2026-05-05 18:46 18.08104 -63.40186 19923 ft 425 kts 325°
2026-05-05 18:46 18.10583 -63.41940 20497 ft 431 kts 325°
2026-05-05 18:46 18.13090 -63.43711 21091 ft 437 kts 325°
2026-05-05 18:47 18.15685 -63.45385 21586 ft 442 kts 333°
2026-05-05 18:47 18.18587 -63.46565 22073 ft 450 kts 341°
2026-05-05 18:47 18.21618 -63.47479 22603 ft 455 kts 344°
2026-05-05 18:47 18.24653 -63.48303 23107 ft 460 kts 345°
2026-05-05 18:48 18.27777 -63.49124 23573 ft 465 kts 345°
2026-05-05 18:48 18.30941 -63.49951 24031 ft 470 kts 345°
2026-05-05 18:48 18.34140 -63.50785 24478 ft 475 kts 345°
2026-05-05 18:48 18.37360 -63.51623 24961 ft 478 kts 345°
2026-05-05 18:49 18.40602 -63.52462 25449 ft 481 kts 345°
2026-05-05 18:49 18.43866 -63.53305 25884 ft 485 kts 345°
2026-05-05 18:49 18.47156 -63.54152 26312 ft 488 kts 345°
2026-05-05 18:49 18.50472 -63.55008 26739 ft 492 kts 345°
2026-05-05 18:50 18.53795 -63.55910 27180 ft 494 kts 344°
2026-05-05 18:50 18.57112 -63.56898 27594 ft 497 kts 341°
2026-05-05 18:50 18.60321 -63.58187 27961 ft 499 kts 334°
2026-05-05 18:50 18.63410 -63.59897 28317 ft 502 kts 328°
2026-05-05 18:51 18.66325 -63.61931 28673 ft 504 kts 323°
2026-05-05 18:51 18.69121 -63.64182 29019 ft 506 kts 320°
2026-05-05 18:51 18.71844 -63.66539 29342 ft 508 kts 319°
2026-05-05 18:51 18.74559 -63.68951 29649 ft 511 kts 319°
2026-05-05 18:52 18.77281 -63.71370 29946 ft 513 kts 319°
2026-05-05 18:52 18.80026 -63.73781 30336 ft 513 kts 319°
2026-05-05 18:52 18.82777 -63.76165 30864 ft 509 kts 320°
2026-05-05 18:52 18.85507 -63.78510 31450 ft 505 kts 320°
2026-05-05 18:53 18.88230 -63.80832 32031 ft 500 kts 320°
2026-05-05 18:53 18.90926 -63.83125 32594 ft 496 kts 320°
2026-05-05 18:53 18.93603 -63.85401 33111 ft 492 kts 320°
2026-05-05 18:53 18.96226 -63.87633 33589 ft 489 kts 319°
2026-05-05 18:54 18.98866 -63.89883 34068 ft 486 kts 319°
2026-05-05 18:54 19.01500 -63.92129 34528 ft 483 kts 319°
2026-05-05 18:54 19.04117 -63.94363 34928 ft 482 kts 319°
2026-05-05 18:54 19.06726 -63.96594 35286 ft 481 kts 319°
2026-05-05 18:55 19.09327 -63.98818 35612 ft 480 kts 319°
2026-05-05 18:55 19.11921 -64.01038 35962 ft 479 kts 319°
2026-05-05 18:55 19.17107 -64.05478 36079 ft 484 kts 319°
2026-05-05 18:56 19.22319 -64.09943 36085 ft 477 kts 319°
2026-05-05 18:56 19.27466 -64.14356 36089 ft 476 kts 319°
2026-05-05 18:57 19.32609 -64.18767 36097 ft 476 kts 318°
2026-05-05 18:57 19.37757 -64.23189 36094 ft 476 kts 318°
2026-05-05 18:58 19.42903 -64.27618 36094 ft 477 kts 318°
2026-05-05 18:58 19.48058 -64.32047 36092 ft 477 kts 318°
2026-05-05 18:59 19.53187 -64.36457 36095 ft 478 kts 318°
2026-05-05 18:59 19.58348 -64.40909 36093 ft 478 kts 318°
2026-05-05 19:00 19.63522 -64.45372 36093 ft 479 kts 318°
2026-05-05 19:00 19.68700 -64.49842 36089 ft 478 kts 318°
2026-05-05 19:01 19.73835 -64.54274 36093 ft 478 kts 318°
2026-05-05 19:01 19.78993 -64.58732 36091 ft 478 kts 318°
2026-05-05 19:02 19.84149 -64.63195 36091 ft 478 kts 318°
2026-05-05 19:02 19.89297 -64.67654 36091 ft 478 kts 318°
2026-05-05 19:03 19.94418 -64.72092 36092 ft 477 kts 318°
2026-05-05 19:03 19.99566 -64.76561 36091 ft 477 kts 318°
2026-05-05 19:04 20.04715 -64.81031 36090 ft 477 kts 317°
2026-05-05 19:04 20.09859 -64.85503 36088 ft 477 kts 317°
2026-05-05 19:05 20.15001 -64.89975 36082 ft 477 kts 317°
2026-05-05 19:05 20.20143 -64.94451 36086 ft 477 kts 317°
2026-05-05 19:06 20.25283 -64.98930 36084 ft 477 kts 317°
2026-05-05 19:06 20.30398 -65.03392 36083 ft 478 kts 317°
2026-05-05 19:07 20.35538 -65.07879 36083 ft 478 kts 317°
2026-05-05 19:07 20.40678 -65.12369 36082 ft 478 kts 317°
2026-05-05 19:08 20.45823 -65.16868 36077 ft 478 kts 317°
2026-05-05 19:08 20.50960 -65.21366 36075 ft 477 kts 316°
2026-05-05 19:09 20.56063 -65.25836 36070 ft 477 kts 316°
2026-05-05 19:09 20.61199 -65.30337 36069 ft 477 kts 316°
2026-05-05 19:10 20.66338 -65.34848 36063 ft 478 kts 316°
2026-05-05 19:10 20.71470 -65.39357 36066 ft 477 kts 316°
2026-05-05 19:11 20.76605 -65.43875 36067 ft 477 kts 316°
2026-05-05 19:11 20.81703 -65.48355 36064 ft 477 kts 316°
2026-05-05 19:12 20.86824 -65.52868 36068 ft 477 kts 316°
2026-05-05 19:12 20.91939 -65.57379 36058 ft 476 kts 316°
2026-05-05 19:13 20.97059 -65.61896 36060 ft 476 kts 316°
2026-05-05 19:13 21.02180 -65.66418 36063 ft 477 kts 316°
2026-05-05 19:14 21.07295 -65.70941 36065 ft 477 kts 316°
2026-05-05 19:14 21.12388 -65.75447 36068 ft 478 kts 316°
2026-05-05 19:15 21.17507 -65.79982 36075 ft 477 kts 316°
2026-05-05 19:15 21.22629 -65.84524 36086 ft 478 kts 316°
2026-05-05 19:16 21.27754 -65.89070 36082 ft 478 kts 315°
2026-05-05 19:16 21.32882 -65.93626 36085 ft 478 kts 315°
2026-05-05 19:17 21.37977 -65.98157 36081 ft 478 kts 315°
2026-05-05 19:17 21.43157 -66.02651 36081 ft 482 kts 321°
2026-05-05 19:18 21.49233 -66.05870 36074 ft 493 kts 336°
2026-05-05 19:18 21.54843 -66.07286 36072 ft 500 kts 345°
2026-05-05 19:19 21.62821 -66.08789 36068 ft 500 kts 345°
2026-05-05 19:19 21.68558 -66.09905 36069 ft 500 kts 344°
2026-05-05 19:20 21.75393 -66.11290 36068 ft 500 kts 344°
2026-05-05 19:20 21.82237 -66.12697 36076 ft 500 kts 344°
2026-05-05 19:21 21.89076 -66.14100 36073 ft 501 kts 344°
2026-05-05 19:21 21.95883 -66.15495 36074 ft 501 kts 344°
2026-05-05 19:22 22.02735 -66.16901 36074 ft 501 kts 344°
2026-05-05 19:22 22.09591 -66.18303 36075 ft 501 kts 344°
2026-05-05 19:23 22.16440 -66.19698 36083 ft 501 kts 344°
2026-05-05 19:23 22.23300 -66.21095 36072 ft 501 kts 344°
2026-05-05 19:24 22.30154 -66.22494 36072 ft 501 kts 344°
2026-05-05 19:24 22.36967 -66.23889 36077 ft 501 kts 344°
2026-05-05 19:25 22.43812 -66.25288 36070 ft 501 kts 344°
2026-05-05 19:25 22.50664 -66.26695 36075 ft 500 kts 344°
2026-05-05 19:26 22.57511 -66.28099 36077 ft 500 kts 344°
2026-05-05 19:26 22.64347 -66.29503 36074 ft 500 kts 344°
2026-05-05 19:27 22.71191 -66.30910 36073 ft 500 kts 344°
2026-05-05 19:27 22.78001 -66.32310 36074 ft 501 kts 344°
2026-05-05 19:28 22.84856 -66.33723 36073 ft 501 kts 344°
2026-05-05 19:28 22.91708 -66.35136 36073 ft 501 kts 344°
2026-05-05 19:29 22.98562 -66.36551 36074 ft 501 kts 344°
2026-05-05 19:29 23.05387 -66.37963 36072 ft 501 kts 344°
2026-05-05 19:30 23.12255 -66.39387 36074 ft 502 kts 344°
2026-05-05 19:30 23.19117 -66.40813 36077 ft 502 kts 344°
2026-05-05 19:31 23.25978 -66.42238 36076 ft 502 kts 344°
2026-05-05 19:31 23.32849 -66.43663 36074 ft 502 kts 344°
2026-05-05 19:32 23.39676 -66.45085 36077 ft 502 kts 344°
2026-05-05 19:32 23.46548 -66.46517 36075 ft 503 kts 344°
2026-05-05 19:33 23.53426 -66.47951 36078 ft 503 kts 344°
2026-05-05 19:33 23.60313 -66.49389 36085 ft 503 kts 344°
2026-05-05 19:34 23.67189 -66.50828 36072 ft 504 kts 344°
2026-05-05 19:35 23.77477 -66.52980 36074 ft 504 kts 344°
2026-05-05 19:35 23.84359 -66.54421 36074 ft 504 kts 344°
2026-05-05 19:36 23.91244 -66.55865 36075 ft 503 kts 344°
2026-05-05 19:36 23.98140 -66.57314 36075 ft 504 kts 344°
2026-05-05 19:37 24.05030 -66.58763 36072 ft 504 kts 344°
2026-05-05 19:37 24.11871 -66.60203 36074 ft 504 kts 344°
2026-05-05 19:38 24.18759 -66.61654 36073 ft 504 kts 344°
2026-05-05 19:38 24.25639 -66.63106 36070 ft 504 kts 344°
2026-05-05 19:39 24.32530 -66.64561 36075 ft 503 kts 344°
2026-05-05 19:39 24.39411 -66.66016 36074 ft 503 kts 344°
2026-05-05 19:40 24.46290 -66.67474 36073 ft 503 kts 344°
2026-05-05 19:40 24.53170 -66.68930 36073 ft 503 kts 344°
2026-05-05 19:41 24.60002 -66.70378 36072 ft 502 kts 344°
2026-05-05 19:41 24.66867 -66.71837 36076 ft 502 kts 344°
2026-05-05 19:42 24.73733 -66.73296 36077 ft 502 kts 344°
2026-05-05 19:42 24.80582 -66.74755 36069 ft 501 kts 344°
2026-05-05 19:43 24.87431 -66.76213 36074 ft 501 kts 344°
2026-05-05 19:43 24.94280 -66.77674 36073 ft 501 kts 344°
2026-05-05 19:44 25.01095 -66.79129 36077 ft 501 kts 344°
2026-05-05 19:44 25.07949 -66.80593 36075 ft 502 kts 344°
2026-05-05 19:45 25.14818 -66.82064 36073 ft 503 kts 344°
2026-05-05 19:45 25.21683 -66.83536 36073 ft 502 kts 344°
2026-05-05 19:46 25.28545 -66.85006 36072 ft 502 kts 344°
2026-05-05 19:46 25.35410 -66.86483 36076 ft 502 kts 344°
2026-05-05 19:47 25.42266 -66.87958 36074 ft 502 kts 344°
2026-05-05 19:47 25.49129 -66.89436 36085 ft 502 kts 344°
2026-05-05 19:48 25.55951 -66.90906 36081 ft 502 kts 344°
2026-05-05 19:48 25.62810 -66.92384 36083 ft 502 kts 344°
2026-05-05 19:49 25.69675 -66.93867 36085 ft 502 kts 344°
2026-05-05 19:49 25.76535 -66.95352 36083 ft 502 kts 344°
2026-05-05 19:50 25.83406 -66.96839 36083 ft 503 kts 344°
2026-05-05 19:50 25.90267 -66.98327 36089 ft 503 kts 344°
2026-05-05 19:51 25.97144 -66.99819 36081 ft 503 kts 343°
2026-05-05 19:51 26.04013 -67.01311 36082 ft 503 kts 343°
2026-05-05 19:52 26.10881 -67.02805 36082 ft 503 kts 343°
2026-05-05 19:52 26.17713 -67.04295 36083 ft 503 kts 343°
2026-05-05 19:53 26.24603 -67.05798 36084 ft 503 kts 343°
2026-05-05 19:53 26.31477 -67.07299 36083 ft 503 kts 343°
2026-05-05 19:54 26.38360 -67.08804 36082 ft 503 kts 343°
2026-05-05 19:54 26.45235 -67.10308 36088 ft 503 kts 343°
2026-05-05 19:55 26.52064 -67.11802 36095 ft 503 kts 343°
2026-05-05 19:55 26.58935 -67.13310 36091 ft 504 kts 343°
2026-05-05 19:56 26.65815 -67.14823 36093 ft 504 kts 343°
2026-05-05 19:56 26.72696 -67.16337 36099 ft 504 kts 343°
2026-05-05 19:57 26.79587 -67.17855 36088 ft 504 kts 343°
2026-05-05 19:57 26.86472 -67.19373 36089 ft 504 kts 343°
2026-05-05 19:58 26.93360 -67.20893 36093 ft 503 kts 342°
2026-05-05 19:58 27.00196 -67.22405 36092 ft 503 kts 342°
2026-05-05 19:59 27.07061 -67.23925 36105 ft 503 kts 342°
2026-05-05 19:59 27.13930 -67.25446 36110 ft 502 kts 342°
2026-05-05 20:00 27.20796 -67.26972 36110 ft 503 kts 342°
2026-05-05 20:00 27.27679 -67.28507 36115 ft 503 kts 342°
2026-05-05 20:01 27.34557 -67.30040 36114 ft 504 kts 342°
2026-05-05 20:01 27.41397 -67.31566 36115 ft 504 kts 342°
2026-05-05 20:02 27.48279 -67.33103 36112 ft 504 kts 342°
2026-05-05 20:02 27.55150 -67.34638 36111 ft 503 kts 342°
2026-05-05 20:03 27.62020 -67.36178 36115 ft 503 kts 341°
2026-05-05 20:03 27.68882 -67.37719 36112 ft 502 kts 341°
2026-05-05 20:04 27.75745 -67.39258 36115 ft 502 kts 341°
2026-05-05 20:04 27.82557 -67.40789 36110 ft 502 kts 341°
2026-05-05 20:05 27.89409 -67.42331 36107 ft 502 kts 341°
2026-05-05 20:05 27.96256 -67.43875 36101 ft 502 kts 341°
2026-05-05 20:06 28.01947 -67.45162 36102 ft 501 kts 341°
2026-05-05 20:06 28.08791 -67.46708 36099 ft 501 kts 341°
2026-05-05 20:07 28.15646 -67.48258 36105 ft 501 kts 341°
2026-05-05 20:07 28.22490 -67.49810 36102 ft 501 kts 341°
2026-05-05 20:08 28.29336 -67.51363 36102 ft 501 kts 341°
2026-05-05 20:08 28.36163 -67.52818 36103 ft 505 kts 345°
2026-05-05 20:09 28.43261 -67.53271 36112 ft 513 kts 351°
2026-05-05 20:09 28.50419 -67.53421 36109 ft 513 kts 352°
2026-05-05 20:10 28.57566 -67.53592 36115 ft 514 kts 351°
2026-05-05 20:10 28.64730 -67.53806 36109 ft 514 kts 351°
2026-05-05 20:11 28.71898 -67.54041 36108 ft 515 kts 351°
2026-05-05 20:11 28.79078 -67.54276 36110 ft 516 kts 351°
2026-05-05 20:12 28.86224 -67.54507 36112 ft 517 kts 351°
2026-05-05 20:12 28.93415 -67.54738 36115 ft 517 kts 351°
2026-05-05 20:13 29.00634 -67.54972 36113 ft 518 kts 351°
2026-05-05 20:13 29.07848 -67.55204 36112 ft 518 kts 351°
2026-05-05 20:14 29.15019 -67.55437 36111 ft 519 kts 351°
2026-05-05 20:14 29.22263 -67.55670 36111 ft 519 kts 351°
2026-05-05 20:15 29.29488 -67.55904 36106 ft 520 kts 351°
2026-05-05 20:15 29.36732 -67.56140 36115 ft 520 kts 351°
2026-05-05 20:16 29.43965 -67.56378 36112 ft 520 kts 351°
2026-05-05 20:16 29.51154 -67.56613 36124 ft 521 kts 351°
2026-05-05 20:17 29.58411 -67.56847 36116 ft 521 kts 351°
2026-05-05 20:17 29.65658 -67.57082 36121 ft 521 kts 351°
2026-05-05 20:18 29.72915 -67.57321 36115 ft 521 kts 351°
2026-05-05 20:18 29.80174 -67.57559 36126 ft 521 kts 351°
2026-05-05 20:19 29.87423 -67.57797 36125 ft 521 kts 351°
2026-05-05 20:19 29.94413 -67.58027 36136 ft 523 kts 351°
2026-05-05 20:20 30.01688 -67.58272 36115 ft 522 kts 350°
2026-05-05 20:20 30.08945 -67.58509 36116 ft 521 kts 351°
2026-05-05 20:21 30.16193 -67.58745 36118 ft 521 kts 351°
2026-05-05 20:21 30.23437 -67.58986 36121 ft 521 kts 351°
2026-05-05 20:22 30.30681 -67.59226 36122 ft 520 kts 351°
2026-05-05 20:22 30.37917 -67.59465 36119 ft 520 kts 351°
2026-05-05 20:23 30.45166 -67.59706 36118 ft 520 kts 351°
2026-05-05 20:23 30.52365 -67.59945 36130 ft 520 kts 351°
2026-05-05 20:24 30.59610 -67.60186 36118 ft 520 kts 351°
2026-05-05 20:24 30.66852 -67.60428 36116 ft 521 kts 351°
2026-05-05 20:25 30.74113 -67.60569 36123 ft 523 kts 353°
2026-05-05 20:25 30.81398 -67.60479 36122 ft 524 kts 354°
2026-05-05 20:26 30.88688 -67.60368 36121 ft 523 kts 353°
2026-05-05 20:26 30.95969 -67.60292 36120 ft 523 kts 353°
2026-05-05 20:27 31.03252 -67.60236 36115 ft 523 kts 353°
2026-05-05 20:27 31.10482 -67.60184 36126 ft 523 kts 353°
2026-05-05 20:28 31.17768 -67.60130 36119 ft 522 kts 353°
2026-05-05 20:28 31.25043 -67.60077 36115 ft 522 kts 354°
2026-05-05 20:29 31.32279 -67.60019 36126 ft 521 kts 354°
2026-05-05 20:29 31.39535 -67.59963 36132 ft 521 kts 354°
2026-05-05 20:30 31.46788 -67.59908 36125 ft 520 kts 354°
2026-05-05 20:30 31.54031 -67.59854 36124 ft 520 kts 354°
2026-05-05 20:31 31.61269 -67.59798 36127 ft 520 kts 354°
2026-05-05 20:31 31.68500 -67.59741 36135 ft 520 kts 354°
2026-05-05 20:32 31.75731 -67.59685 36120 ft 519 kts 354°
2026-05-05 20:32 31.82912 -67.59631 36135 ft 520 kts 354°
2026-05-05 20:33 31.90147 -67.59576 36130 ft 520 kts 354°
2026-05-05 20:33 31.97376 -67.59516 36130 ft 519 kts 354°
2026-05-05 20:34 32.04597 -67.59461 36122 ft 519 kts 354°
2026-05-05 20:34 32.11816 -67.59407 36133 ft 519 kts 354°
2026-05-05 20:35 32.19039 -67.59352 36136 ft 519 kts 354°
2026-05-05 20:35 32.26273 -67.59295 36135 ft 520 kts 354°
2026-05-05 20:36 32.33520 -67.59239 36128 ft 521 kts 354°
2026-05-05 20:36 32.40734 -67.59179 36137 ft 521 kts 354°
2026-05-05 20:37 32.48000 -67.59125 36124 ft 522 kts 354°
2026-05-05 20:37 32.55263 -67.59069 36119 ft 522 kts 354°
2026-05-05 20:38 32.62530 -67.59011 36121 ft 522 kts 354°
2026-05-05 20:38 32.69752 -67.58954 36120 ft 522 kts 354°
2026-05-05 20:39 32.77011 -67.58894 36120 ft 522 kts 354°
2026-05-05 20:39 32.84286 -67.58838 36123 ft 523 kts 354°
2026-05-05 20:40 32.91567 -67.58782 36118 ft 523 kts 354°
2026-05-05 20:40 32.98859 -67.58726 36122 ft 523 kts 354°
2026-05-05 20:41 33.06153 -67.58667 36120 ft 524 kts 354°
2026-05-05 20:41 33.13445 -67.58608 36123 ft 524 kts 354°
2026-05-05 20:42 33.20751 -67.58550 36117 ft 525 kts 354°
2026-05-05 20:42 33.28059 -67.58492 36127 ft 525 kts 354°
2026-05-05 20:43 33.35313 -67.58431 36115 ft 525 kts 354°
2026-05-05 20:43 33.42630 -67.58375 36115 ft 526 kts 354°
2026-05-05 20:44 33.49962 -67.58317 36108 ft 526 kts 354°
2026-05-05 20:44 33.57275 -67.58257 36102 ft 526 kts 354°
2026-05-05 20:45 33.68266 -67.58170 36102 ft 526 kts 354°
2026-05-05 20:45 33.75602 -67.58111 36102 ft 526 kts 354°
2026-05-05 20:46 33.82885 -67.58053 36102 ft 527 kts 354°
2026-05-05 20:46 33.90215 -67.57992 36101 ft 527 kts 354°
2026-05-05 20:47 33.97545 -67.57932 36100 ft 527 kts 354°
2026-05-05 20:47 34.04879 -67.57873 36105 ft 527 kts 354°
2026-05-05 20:48 34.12205 -67.57814 36101 ft 527 kts 354°
2026-05-05 20:48 34.19544 -67.57774 36103 ft 527 kts 354°
2026-05-05 20:49 34.26870 -67.57775 36101 ft 527 kts 354°
2026-05-05 20:49 34.34205 -67.57778 36104 ft 526 kts 354°
2026-05-05 20:50 34.40285 -67.57774 36094 ft 526 kts 354°
2026-05-05 20:50 34.48856 -67.57765 36091 ft 526 kts 354°
2026-05-05 20:51 34.56124 -67.57757 36091 ft 525 kts 354°
2026-05-05 20:51 34.63435 -67.57750 36092 ft 524 kts 354°
2026-05-05 20:52 34.70718 -67.57742 36091 ft 523 kts 354°
2026-05-05 20:52 34.78005 -67.57736 36093 ft 523 kts 354°
2026-05-05 20:53 34.85231 -67.57730 36097 ft 522 kts 354°
2026-05-05 20:53 34.92496 -67.57720 36090 ft 522 kts 354°
2026-05-05 20:54 34.98563 -67.57714 36091 ft 521 kts 354°
2026-05-05 20:54 35.05765 -67.57706 36084 ft 521 kts 354°
2026-05-05 20:55 35.13015 -67.57699 36090 ft 520 kts 354°
2026-05-05 20:55 35.20252 -67.57691 36082 ft 519 kts 354°
2026-05-05 20:56 35.27485 -67.57686 36082 ft 519 kts 354°
2026-05-05 20:56 35.34698 -67.57678 36082 ft 518 kts 354°
2026-05-05 20:57 35.41860 -67.57669 36081 ft 517 kts 354°
2026-05-05 20:57 35.49057 -67.57662 36085 ft 516 kts 355°
2026-05-05 20:58 35.56247 -67.57655 36086 ft 516 kts 355°
2026-05-05 20:58 35.63419 -67.57648 36080 ft 515 kts 355°
2026-05-05 20:59 35.70586 -67.57640 36087 ft 514 kts 355°
2026-05-05 20:59 35.77743 -67.57633 36079 ft 514 kts 355°
2026-05-05 21:00 35.84887 -67.57626 36074 ft 513 kts 355°
2026-05-05 21:00 35.92030 -67.57618 36078 ft 513 kts 355°
2026-05-05 21:01 35.99115 -67.57611 36072 ft 512 kts 355°
2026-05-05 21:01 36.06247 -67.57603 36078 ft 512 kts 355°
2026-05-05 21:02 36.13377 -67.57596 36072 ft 512 kts 355°
2026-05-05 21:02 36.20498 -67.57590 36074 ft 512 kts 355°
2026-05-05 21:03 36.27620 -67.57581 36064 ft 512 kts 355°
2026-05-05 21:03 36.34755 -67.57574 36064 ft 512 kts 355°
2026-05-05 21:04 36.41886 -67.57566 36059 ft 512 kts 355°
2026-05-05 21:04 36.49013 -67.57559 36057 ft 512 kts 355°
2026-05-05 21:05 36.56099 -67.57553 36056 ft 512 kts 355°
2026-05-05 21:05 36.63224 -67.57546 36058 ft 510 kts 356°
2026-05-05 21:06 36.70304 -67.57537 36034 ft 507 kts 356°
2026-05-05 21:06 36.77360 -67.57527 36035 ft 505 kts 355°
2026-05-05 21:07 36.84335 -67.57521 36055 ft 503 kts 355°
2026-05-05 21:07 36.91302 -67.57514 36047 ft 502 kts 355°
2026-05-05 21:08 36.98285 -67.57506 36034 ft 502 kts 355°
2026-05-05 21:08 37.05282 -67.57499 36035 ft 502 kts 355°
2026-05-05 21:09 37.12267 -67.57493 36052 ft 502 kts 355°
2026-05-05 21:09 37.19256 -67.57485 36052 ft 502 kts 355°
2026-05-05 21:10 37.26252 -67.57474 36048 ft 502 kts 355°
2026-05-05 21:10 37.33236 -67.57468 36035 ft 501 kts 355°
2026-05-05 21:11 37.40170 -67.57463 36031 ft 501 kts 355°
2026-05-05 21:11 37.47132 -67.57455 36028 ft 500 kts 355°
2026-05-05 21:12 37.54080 -67.57446 36028 ft 499 kts 355°
2026-05-05 21:12 37.61022 -67.57439 36026 ft 498 kts 355°
2026-05-05 21:13 37.67948 -67.57433 36027 ft 497 kts 355°
2026-05-05 21:13 37.74870 -67.57422 36028 ft 497 kts 355°
2026-05-05 21:14 37.81768 -67.57416 36025 ft 496 kts 355°
2026-05-05 21:14 37.88644 -67.57412 36018 ft 496 kts 355°
2026-05-05 21:15 37.95544 -67.57404 36016 ft 496 kts 355°
2026-05-05 21:15 38.02462 -67.57394 36012 ft 496 kts 355°
2026-05-05 21:16 38.09355 -67.57385 36007 ft 495 kts 355°
2026-05-05 21:16 38.16251 -67.57378 36008 ft 495 kts 355°
2026-05-05 21:17 38.23142 -67.57372 36007 ft 495 kts 355°
2026-05-05 21:17 38.30032 -67.57365 36000 ft 495 kts 355°
2026-05-05 21:18 38.36877 -67.57356 36000 ft 495 kts 355°
2026-05-05 21:18 38.43769 -67.57349 35997 ft 495 kts 355°
2026-05-05 21:19 38.50654 -67.57341 35999 ft 495 kts 355°
2026-05-05 21:19 38.57551 -67.57334 36001 ft 495 kts 356°
2026-05-05 21:20 38.64442 -67.57325 36002 ft 495 kts 356°
2026-05-05 21:20 38.71301 -67.57319 36000 ft 495 kts 356°
2026-05-05 21:21 38.78204 -67.57311 36000 ft 495 kts 356°
2026-05-05 21:21 38.85072 -67.57519 35996 ft 491 kts 349°
2026-05-05 21:22 38.91711 -67.59271 35989 ft 484 kts 338°
2026-05-05 21:22 38.97979 -67.62318 35984 ft 481 kts 334°
2026-05-05 21:23 39.04189 -67.65526 35996 ft 480 kts 334°
2026-05-05 21:23 39.10410 -67.68706 35988 ft 481 kts 334°
2026-05-05 21:24 39.16606 -67.71840 35993 ft 481 kts 335°
2026-05-05 21:24 39.22850 -67.74993 35989 ft 482 kts 335°
2026-05-05 21:25 39.29098 -67.78157 35983 ft 482 kts 335°
2026-05-05 21:25 39.35339 -67.81324 35981 ft 482 kts 335°
2026-05-05 21:26 39.41579 -67.84496 35981 ft 482 kts 335°
2026-05-05 21:26 39.47816 -67.87673 35982 ft 481 kts 335°
2026-05-05 21:27 39.53972 -67.90817 35969 ft 481 kts 338°
2026-05-05 21:27 39.60146 -67.93973 35978 ft 481 kts 335°
2026-05-05 21:28 39.66341 -67.97152 36292 ft 481 kts 335°
2026-05-05 21:28 39.69452 -67.98749 35942 ft 482 kts 336°
2026-05-05 21:28 39.72564 -68.00346 35979 ft 480 kts 335°
2026-05-05 21:29 39.78772 -68.03539 35976 ft 478 kts 335°
2026-05-05 21:29 39.84957 -68.06728 35981 ft 478 kts 335°
2026-05-05 21:30 39.91128 -68.09917 35981 ft 477 kts 335°
2026-05-05 21:30 39.96999 -68.13841 35981 ft 473 kts 324°
2026-05-05 21:31 40.02502 -68.18555 35982 ft 474 kts 323°
2026-05-05 21:31 40.08005 -68.23309 35982 ft 475 kts 324°
2026-05-05 21:32 40.13501 -68.28019 35979 ft 476 kts 324°
2026-05-05 21:32 40.19050 -68.32753 35972 ft 476 kts 324°
2026-05-05 21:33 40.24594 -68.37485 35972 ft 476 kts 324°
2026-05-05 21:33 40.30142 -68.42231 35966 ft 476 kts 324°
2026-05-05 21:34 40.35681 -68.46981 35962 ft 475 kts 324°
2026-05-05 21:34 40.41181 -68.51705 35963 ft 475 kts 324°
2026-05-05 21:35 40.46710 -68.56466 35962 ft 474 kts 324°
2026-05-05 21:35 40.52224 -68.61225 35963 ft 474 kts 324°
2026-05-05 21:36 40.57731 -68.65984 35964 ft 473 kts 324°
2026-05-05 21:36 40.63234 -68.70752 35962 ft 473 kts 323°
2026-05-05 21:37 40.68735 -68.75528 35962 ft 473 kts 323°
2026-05-05 21:37 40.74236 -68.80313 35963 ft 473 kts 323°
2026-05-05 21:38 40.79725 -68.85096 35964 ft 473 kts 323°
2026-05-05 21:38 40.85188 -68.89865 35964 ft 473 kts 323°
2026-05-05 21:39 40.90680 -68.94671 35965 ft 473 kts 323°
2026-05-05 21:39 40.96165 -68.99480 35970 ft 473 kts 323°
2026-05-05 21:40 41.01642 -69.04290 35971 ft 472 kts 323°
2026-05-05 21:40 41.07127 -69.09117 35974 ft 472 kts 323°
2026-05-05 21:41 41.11679 -69.13134 35972 ft 473 kts 323°
2026-05-05 21:41 41.17160 -69.17979 35973 ft 473 kts 323°
2026-05-05 21:42 41.22636 -69.22827 35972 ft 473 kts 323°
2026-05-05 21:42 41.28124 -69.27697 35971 ft 473 kts 323°
2026-05-05 21:43 41.30802 -69.30077 36209 ft 474 kts 323°
2026-05-05 21:43 41.33537 -69.32507 36133 ft 472 kts 323°
2026-05-05 21:43 41.38950 -69.37327 36015 ft 465 kts 322°
2026-05-05 21:44 41.44289 -69.42095 36015 ft 465 kts 323°
2026-05-05 21:44 41.49674 -69.46914 36005 ft 466 kts 323°
2026-05-05 21:45 41.55076 -69.51756 36009 ft 467 kts 322°
2026-05-05 21:45 41.60469 -69.56600 35985 ft 467 kts 322°
2026-05-05 21:46 41.65864 -69.61455 35898 ft 467 kts 322°
2026-05-05 21:46 41.68583 -69.63908 35127 ft 474 kts 323°
2026-05-05 21:46 41.71319 -69.66378 34362 ft 474 kts 323°
2026-05-05 21:47 41.74047 -69.68841 33448 ft 474 kts 323°
2026-05-05 21:47 41.76789 -69.71319 32480 ft 475 kts 323°
2026-05-05 21:47 41.79491 -69.73764 31556 ft 475 kts 324°
2026-05-05 21:47 41.82346 -69.76007 30604 ft 478 kts 332°
2026-05-05 21:48 41.85445 -69.77736 29914 ft 474 kts 338°
2026-05-05 21:48 41.88552 -69.79017 29148 ft 471 kts 343°
2026-05-05 21:48 41.91768 -69.79810 28463 ft 468 kts 348°
2026-05-05 21:48 41.94979 -69.80427 27816 ft 463 kts 348°
2026-05-05 21:49 41.98159 -69.81021 27168 ft 458 kts 348°
2026-05-05 21:49 42.01302 -69.81617 26532 ft 454 kts 348°
2026-05-05 21:49 42.04420 -69.82224 25906 ft 451 kts 347°
2026-05-05 21:49 42.07511 -69.82840 25294 ft 447 kts 347°
2026-05-05 21:50 42.10581 -69.83461 24686 ft 445 kts 347°
2026-05-05 21:50 42.13639 -69.84084 24075 ft 443 kts 347°
2026-05-05 21:50 42.16681 -69.84706 23460 ft 441 kts 346°
2026-05-05 21:50 42.19711 -69.85326 22735 ft 439 kts 346°
2026-05-05 21:51 42.22720 -69.85942 22099 ft 436 kts 347°
2026-05-05 21:51 42.25712 -69.86554 21516 ft 433 kts 347°
2026-05-05 21:51 42.28643 -69.87149 20889 ft 430 kts 347°
2026-05-05 21:51 42.31630 -69.87763 20285 ft 427 kts 347°
2026-05-05 21:52 42.37445 -69.88959 19111 ft 423 kts 347°
2026-05-05 21:52 42.40349 -69.89556 18528 ft 421 kts 347°
2026-05-05 21:52 42.43241 -69.90150 17915 ft 420 kts 347°
2026-05-05 21:53 42.46084 -69.90905 17261 ft 413 kts 339°
2026-05-05 21:53 42.48738 -69.92287 16650 ft 405 kts 329°
2026-05-05 21:53 42.51173 -69.94159 15995 ft 398 kts 321°
2026-05-05 21:53 42.53352 -69.96442 15401 ft 393 kts 317°
2026-05-05 21:54 42.55459 -69.98712 14840 ft 391 kts 317°
2026-05-05 21:54 42.57599 -70.00970 14284 ft 388 kts 318°
2026-05-05 21:54 42.59731 -70.03201 13744 ft 384 kts 317°
2026-05-05 21:54 42.61531 -70.05685 13528 ft 357 kts 300°
2026-05-05 21:55 42.62521 -70.08657 13441 ft 338 kts 282°
2026-05-05 21:55 42.62829 -70.11752 13321 ft 325 kts 270°
2026-05-05 21:55 42.62750 -70.14766 13138 ft 315 kts 261°
2026-05-05 21:55 42.62152 -70.17552 12978 ft 300 kts 245°
2026-05-05 21:56 42.61243 -70.20045 12865 ft 290 kts 245°
2026-05-05 21:56 42.60405 -70.22481 12725 ft 279 kts 249°
2026-05-05 21:56 42.59985 -70.25035 12402 ft 278 kts 265°
2026-05-05 21:56 42.59891 -70.27649 12107 ft 276 kts 266°
2026-05-05 21:57 42.59791 -70.30254 11782 ft 276 kts 265°
2026-05-05 21:57 42.59686 -70.32851 11439 ft 276 kts 265°
2026-05-05 21:57 42.59575 -70.35447 11094 ft 275 kts 264°
2026-05-05 21:57 42.59459 -70.38042 10753 ft 275 kts 264°
2026-05-05 21:58 42.59342 -70.40625 10434 ft 274 kts 263°
2026-05-05 21:58 42.59224 -70.43176 10118 ft 272 kts 263°
2026-05-05 21:58 42.59111 -70.45726 9992 ft 269 kts 263°
2026-05-05 21:58 42.58987 -70.48205 9846 ft 261 kts 262°
2026-05-05 21:59 42.58871 -70.50647 9781 ft 253 kts 262°
2026-05-05 21:59 42.58762 -70.53012 9583 ft 250 kts 262°
2026-05-05 21:59 42.58650 -70.55387 9060 ft 257 kts 262°
2026-05-05 21:59 42.58395 -70.57791 8561 ft 257 kts 252°
2026-05-05 22:00 42.57889 -70.60100 8262 ft 253 kts 249°
2026-05-05 22:00 42.57374 -70.62323 8017 ft 241 kts 249°
2026-05-05 22:00 42.56885 -70.64476 7511 ft 238 kts 249°
2026-05-05 22:00 42.56403 -70.66631 6876 ft 239 kts 249°
2026-05-05 22:01 42.56136 -70.68824 6418 ft 238 kts 269°
2026-05-05 22:01 42.56557 -70.70993 6029 ft 239 kts 285°
2026-05-05 22:01 42.57430 -70.72936 5622 ft 242 kts 297°
2026-05-05 22:01 42.58451 -70.74693 5214 ft 237 kts 298°
2026-05-05 22:02 42.59522 -70.76380 4796 ft 238 kts 308°
2026-05-05 22:02 42.60722 -70.77884 4369 ft 228 kts 296°
2026-05-05 22:02 42.61494 -70.79672 3984 ft 216 kts 285°
2026-05-05 22:02 42.62174 -70.81504 3901 ft 216 kts 286°
2026-05-05 22:03 42.62757 -70.83367 3881 ft 210 kts 272°
2026-05-05 22:03 42.62687 -70.85261 3879 ft 199 kts 241°
2026-05-05 22:03 42.61817 -70.86653 3887 ft 194 kts 217°
2026-05-05 22:03 42.60699 -70.87719 3885 ft 197 kts 214°
2026-05-05 22:04 42.59556 -70.88665 3879 ft 188 kts 210°
2026-05-05 22:04 42.58408 -70.89484 3866 ft 185 kts 210°
2026-05-05 22:04 42.57260 -70.90258 3884 ft 184 kts 207°
2026-05-05 22:04 42.56088 -70.90933 3848 ft 187 kts 205°
2026-05-05 22:05 42.54856 -70.91570 3603 ft 188 kts 204°
2026-05-05 22:05 42.53668 -70.92154 3363 ft 175 kts 203°
2026-05-05 22:05 42.52560 -70.92695 3152 ft 166 kts 204°
2026-05-05 22:05 42.51494 -70.93216 2951 ft 159 kts 203°
2026-05-05 22:06 42.50461 -70.93720 2736 ft 155 kts 203°
2026-05-05 22:06 42.49486 -70.94195 2507 ft 142 kts 202°
2026-05-05 22:06 42.48567 -70.94644 2339 ft 142 kts 201°
2026-05-05 22:06 42.47621 -70.95105 2147 ft 146 kts 199°
2026-05-05 22:07 42.46668 -70.95566 1978 ft 149 kts 200°
2026-05-05 22:07 42.45729 -70.96022 1767 ft 139 kts 202°
2026-05-05 22:07 42.44831 -70.96462 1577 ft 135 kts 202°
2026-05-05 22:07 42.43969 -70.96882 1431 ft 132 kts 201°
2026-05-05 22:08 42.43095 -70.97304 1228 ft 130 kts 202°
2026-05-05 22:08 42.42251 -70.97716 1057 ft 126 kts 202°
2026-05-05 22:08 42.41543 -70.98059 911 ft 126 kts 202°
2026-05-05 22:08 42.40848 -70.98400 795 ft 132 kts 201°
2026-05-05 22:09 42.40008 -70.98804 588 ft 122 kts 201°
2026-05-05 22:09 42.39205 -70.99164 437 ft 125 kts 201°
2026-05-05 22:09 42.38397 -70.99574 252 ft 122 kts 208°
2026-05-05 22:09 42.37584 -70.99991 102 ft 129 kts 202°
2026-05-05 22:10 42.36756 -71.00383 31 ft 120 kts 199°
2026-05-05 22:10 42.36242 -71.00636 32 ft 54 kts 200°
2026-05-05 22:10 42.36033 -71.00749 27 ft 26 kts 214°
2026-05-05 22:10 42.35949 -71.00861 30 ft 15 kts 229°
2026-05-05 22:11 42.35884 -71.00964 28 ft 14 kts 229°
2026-05-05 22:11 42.35839 -71.01060 28 ft 10 kts 252°
2026-05-05 22:11 42.35838 -71.01151 29 ft 9 kts 275°
2026-05-05 22:11 42.35844 -71.01225 30 ft 7 kts 277°
2026-05-05 22:12 42.35849 -71.01282 31 ft 6 kts 278°
2026-05-05 22:12 42.35858 -71.01365 33 ft 11 kts 278°
2026-05-05 22:12 42.35866 -71.01438 33 ft 0 kts 279°
2026-05-05 22:12 42.35867 -71.01441 34 ft 0 kts 279°
2026-05-05 22:13 42.35867 -71.01443 34 ft 0 kts 279°
2026-05-05 22:13 42.35874 -71.01478 34 ft 8 kts 293°
2026-05-05 22:13 42.35913 -71.01513 33 ft 7 kts 349°
2026-05-05 22:14 42.35988 -71.01501 33 ft 14 kts 15°
2026-05-05 22:14 42.36078 -71.01462 34 ft 9 kts 21°
2026-05-05 22:14 42.36137 -71.01426 33 ft 10 kts 26°
2026-05-05 22:14 42.36214 -71.01391 30 ft 14 kts 18°
2026-05-05 22:15 42.36310 -71.01346 29 ft 15 kts 19°
2026-05-05 22:15 42.36409 -71.01297 30 ft 15 kts 21°
2026-05-05 22:15 42.36511 -71.01246 29 ft 16 kts 20°
2026-05-05 22:15 42.36597 -71.01304 30 ft 16 kts 306°
2026-05-05 22:16 42.36613 -71.01337 29 ft 0 kts 301°